Wind_Speed
52 52 51 51 50 50 49 48 47 46 44 42 40 39 38 38 37 36 34 33 33 33 33 32 31 32 32 33 36 36 35 40 42 44 50 53 53 53 51 50 49 47 46 44 43 42 41 39 37 36 34 33 31 29 27 26 25 24 24 23 23 22 22 21 20 20 18 16 15 13 13 12 12 11 11 10 9 8 7 6 5 6 6 6 6 5 5 4
52 51 50 50 50 49 48 47 47 46 45 43 41 39 38 38 37 36 35 33 33 33 32 31 30 30 31 32 35 37 36 38 40 45 53 54 54 54 52 51 49 47 46 45 44 43 41 40 38 36 34 33 31 29 28 26 25 24 24 23 22 22 21 20 19 19 18 17 16 14 13 13 12 12 11 11 10 9 7 6 6 6 6 7 7 6 5 5
52 51 51 50 50 49 48 47 47 47 46 43 41 39 38 38 37 36 35 33 32 32 31 29 30 29 29 30 33 35 36 37 40 49 54 54 55 55 52 51 49 48 47 46 45 43 42 40 39 37 35 33 31 30 28 27 25 24 23 22 21 21 20 19 17 17 17 18 17 15 14 13 13 11 11 11 10 8 7 7 7 6 7 8 8 7 6 6
51 50 51 50 49 49 48 47 47 47 46 44 42 40 38 38 37 36 34 32 31 31 30 29 29 28 27 28 30 33 34 35 43 52 54 54 55 53 51 51 50 49 47 47 45 44 42 41 39 37 35 34 32 30 29 27 25 23 22 21 20 20 20 18 17 16 16 17 17 16 15 14 13 12 11 10 9 8 7 8 8 7 8 8 8 8 7 7
50 50 50 50 49 49 48 47 46 46 46 44 42 40 39 38 37 35 33 31 31 30 30 30 28 27 27 27 29 31 32 37 46 52 53 53 53 51 50 50 49 48 47 47 46 45 43 41 39 38 36 34 32 30 28 27 25 23 22 21 20 19 19 18 16 15 15 15 16 16 15 15 14 13 12 10 9 8 8 8 8 8 9 9 10 9 8 8
50 50 49 50 49 49 48 47 45 45 45 44 43 41 40 38 36 35 33 31 30 30 30 29 28 27 27 27 28 30 34 41 47 51 52 51 51 50 49 49 49 48 48 47 46 45 44 42 40 38 36 34 33 30 28 26 24 23 22 21 20 19 18 17 16 16 15 15 15 15 15 15 14 14 12 11 10 9 8 8 9 9 10 10 10 10 9 8
51 50 49 50 49 49 48 47 45 44 44 43 42 42 41 38 37 35 33 31 29 29 29 29 28 28 28 28 28 31 39 46 48 51 50 49 51 50 48 49 48 48 48 47 46 45 43 42 40 38 36 34 33 31 29 27 25 24 22 21 20 19 19 18 17 17 16 16 15 15 15 15 15 14 12 11 10 8 8 9 9 10 10 10 10 10 9 8
52 50 49 50 49 49 48 47 45 44 43 42 42 43 42 39 37 35 33 31 30 30 29 29 29 29 29 29 30 35 43 48 49 50 48 49 50 49 48 48 48 48 48 47 46 45 43 42 40 39 37 35 33 31 29 27 26 24 23 22 20 20 19 18 18 18 17 16 15 15 15 15 15 14 12 10 10 9 9 10 10 10 10 10 10 10 10 9
52 50 50 50 50 49 48 47 46 45 44 42 42 43 43 40 38 36 34 32 31 31 31 31 31 32 31 31 34 39 45 46 47 48 47 48 48 48 48 47 48 48 47 47 46 45 43 42 41 39 38 36 34 32 31 29 27 25 24 22 21 19 18 18 18 18 17 16 16 16 16 16 15 14 12 11 11 10 11 10 10 10 10 10 11 11 10 10
52 51 51 50 50 49 48 48 46 45 44 42 42 43 44 42 40 38 35 33 33 34 34 34 34 34 32 34 38 41 44 44 44 47 46 47 47 47 47 47 48 47 47 47 46 46 44 43 42 40 39 37 35 34 32 30 28 27 25 23 21 20 18 17 17 17 17 16 17 17 17 17 16 15 13 13 12 11 11 11 11 11 11 11 11 11 10 10
53 51 50 50 49 48 48 47 46 45 44 42 42 44 45 43 41 39 37 36 36 36 36 36 37 36 34 37 39 40 44 42 42 46 46 47 47 46 47 47 48 47 47 46 46 46 45 44 43 41 40 38 36 34 33 31 29 27 25 23 21 20 19 18 17 17 17 17 17 17 17 17 17 16 15 14 13 11 11 11 11 11 11 11 11 11 11 10
53 50 49 49 48 48 47 47 46 45 44 43 42 45 47 45 43 41 39 38 39 39 38 38 39 38 37 38 39 41 45 43 41 45 46 47 47 45 46 47 47 47 46 46 46 45 45 44 43 42 40 38 36 35 33 32 30 28 26 24 22 21 20 18 18 18 18 18 18 18 18 17 18 18 15 14 13 12 13 13 12 12 12 12 12 12 11 11
53 51 49 48 48 48 47 47 46 45 44 43 42 46 48 47 45 43 41 41 42 42 41 40 40 40 39 38 40 45 46 43 42 44 45 47 47 45 46 46 47 47 47 46 46 46 45 45 44 42 41 39 37 36 34 32 30 29 27 25 23 22 21 19 18 18 18 18 18 19 18 18 20 19 15 15 14 13 14 13 12 12 12 12 12 12 11 11
53 51 48 48 48 47 46 46 46 45 44 43 42 46 50 48 47 45 44 44 44 45 43 42 41 42 41 39 44 47 45 44 43 43 45 47 46 45 45 46 46 46 47 47 46 47 46 45 44 42 41 39 38 37 35 33 32 30 28 27 25 23 21 19 19 18 18 18 19 20 18 19 22 19 16 17 16 15 15 14 13 13 12 13 12 12 12 11
53 51 48 47 47 46 46 45 45 45 44 43 42 47 51 50 49 47 46 46 47 47 45 43 43 44 42 41 47 48 44 44 44 43 45 46 46 45 44 45 45 46 46 46 46 46 46 46 44 43 41 39 38 37 36 34 32 31 29 28 25 22 21 20 20 19 19 19 20 21 19 20 22 19 17 18 18 16 15 14 14 14 13 13 13 13 13 12
53 51 48 47 46 46 45 44 44 44 44 43 42 46 52 52 50 49 47 48 49 49 47 45 44 45 43 44 48 48 45 44 44 43 44 45 45 45 44 44 45 45 46 46 45 45 45 45 44 43 42 40 39 38 37 36 34 32 30 27 24 22 21 21 21 20 20 21 21 21 20 21 22 20 19 19 20 17 15 15 15 15 14 13 13 13 13 12
52 50 48 47 46 45 45 44 44 43 43 43 42 45 52 54 52 51 49 49 51 51 49 47 46 46 45 46 49 48 46 44 44 44 43 44 44 44 44 44 44 45 46 46 46 45 45 44 44 43 42 41 40 40 39 37 34 31 28 25 23 22 22 22 22 22 22 22 23 23 21 22 23 22 21 21 21 18 16 17 16 15 14 13 13 13 13 13
51 50 48 47 46 45 45 45 44 43 43 43 43 44 51 55 54 52 51 50 52 52 51 50 49 48 48 49 50 49 47 44 44 44 43 43 43 43 44 44 44 44 45 46 46 46 46 45 45 44 44 43 42 40 38 35 32 29 28 26 24 24 24 24 25 24 24 24 24 24 22 22 25 24 22 22 22 20 18 18 17 16 15 15 15 15 15 15
51 50 48 47 46 46 46 45 44 44 43 43 43 43 49 55 55 54 52 51 52 53 53 51 50 50 49 50 50 49 49 47 44 44 43 42 43 43 43 43 43 43 44 45 46 46 46 46 46 46 45 43 41 39 37 34 32 31 30 29 28 28 27 27 27 26 26 25 24 24 23 24 27 26 24 24 23 21 20 19 19 17 17 17 17 17 17 16
52 50 49 48 47 47 47 46 45 45 44 43 43 42 46 53 57 56 54 53 53 53 53 51 50 49 48 49 50 48 49 49 46 45 44 42 42 42 42 42 42 42 43 44 45 45 45 45 45 44 42 41 39 38 37 36 35 33 32 31 30 30 29 28 28 27 26 26 26 26 25 26 27 27 26 25 24 22 21 21 20 19 19 18 17 17 17 16
52 51 50 49 48 48 48 48 47 46 45 43 43 42 42 48 54 55 54 54 54 54 55 53 51 50 49 49 49 49 49 49 48 46 45 44 43 43 43 43 42 41 41 42 43 44 44 44 43 41 41 40 40 40 39 38 37 35 34 33 32 31 30 30 29 28 27 27 27 27 27 27 28 29 29 27 24 22 23 23 22 21 21 19 18 18 18 19
53 52 51 50 49 49 49 49 48 47 46 45 43 43 41 45 52 54 53 53 54 55 56 55 53 51 50 50 49 49 49 49 49 48 46 45 44 44 43 43 42 40 40 41 42 43 44 44 42 41 41 41 41 41 40 39 38 37 36 35 34 32 31 30 30 29 28 29 28 29 29 28 29 31 30 28 24 23 25 24 24 23 22 20 19 20 21 21
54 53 51 51 50 50 50 50 49 48 46 45 44 43 43 44 50 54 54 54 54 55 55 54 53 51 51 51 50 50 51 51 50 49 47 46 45 44 43 42 42 40 40 40 41 42 43 42 42 41 41 41 41 41 41 40 39 37 36 35 34 33 32 31 31 31 30 30 30 30 30 29 30 32 31 29 26 24 25 26 25 25 23 22 23 22 22 21
55 54 52 52 51 51 51 51 50 49 47 47 46 45 44 44 48 53 56 56 56 56 56 55 53 51 50 51 50 50 51 52 52 50 49 47 45 44 43 42 41 40 39 40 40 41 42 42 42 42 42 42 42 41 41 40 39 38 37 36 35 34 34 33 33 33 32 32 32 31 32 30 31 32 31 31 28 25 26 26 25 25 24 25 25 24 23 23
56 55 53 53 52 52 52 51 50 49 48 48 47 46 45 45 48 51 54 56 57 58 58 58 56 54 52 50 50 49 50 52 53 53 52 51 48 45 44 42 41 40 40 40 40 42 43 42 42 43 43 43 43 42 41 41 40 39 38 37 36 36 35 35 35 35 34 34 33 33 33 31 30 32 32 32 30 27 27 27 26 26 27 27 27 26 26 25
58 57 56 55 54 54 53 52 51 50 50 49 48 47 46 47 48 50 52 55 58 58 59 59 58 56 54 53 51 50 50 51 52 53 54 54 52 48 45 43 43 41 40 40 41 42 43 43 43 44 44 44 43 42 41 41 40 39 38 37 37 36 36 36 35 36 35 35 34 33 34 33 31 32 33 32 32 29 28 27 27 27 28 29 29 28 27 26
59 58 58 56 55 55 54 53 52 52 51 51 50 48 48 48 49 50 51 54 58 59 59 59 59 57 56 54 53 52 51 50 50 51 53 54 54 52 48 45 44 43 42 43 44 44 43 42 43 44 44 44 43 42 41 40 40 39 38 38 38 37 37 37 36 36 36 35 35 34 35 35 32 31 32 33 32 31 29 27 27 29 30 31 29 28 27 27
60 60 59 58 56 56 54 54 53 52 52 51 51 50 49 49 49 50 50 54 58 60 60 60 59 58 56 55 55 54 53 51 50 50 51 51 52 52 51 47 44 43 43 43 44 44 43 42 42 42 43 42 41 40 40 40 40 39 38 39 39 38 38 37 37 37 36 36 36 35 35 37 34 29 31 33 32 32 31 29 29 30 31 30 29 29 29 28
61 61 61 60 59 58 56 55 54 54 53 52 51 50 50 50 50 51 52 54 57 60 60 60 60 60 58 56 56 55 54 53 52 50 49 49 49 49 50 49 46 45 44 44 44 44 44 44 43 42 42 41 40 41 41 41 41 41 41 41 40 40 39 39 38 38 38 38 37 36 36 38 36 30 30 32 32 31 31 31 31 31 31 30 30 30 30 30
61 62 62 62 60 58 56 55 56 56 55 54 52 51 51 51 52 52 54 55 55 57 60 61 61 61 60 58 57 57 56 56 54 52 51 50 48 47 47 48 47 46 44 44 45 45 45 46 45 45 44 43 42 43 42 43 43 43 43 43 42 42 41 41 40 39 40 39 38 38 36 38 38 32 29 31 32 31 31 32 32 32 31 31 31 31 31 31
57 58 59 59 59 58 58 58 57 57 56 55 54 53 53 53 53 54 55 54 54 56 58 60 61 61 61 59 58 58 58 58 56 55 54 52 50 48 48 48 48 47 46 46 46 46 46 46 46 46 46 45 45 45 45 44 45 44 44 43 43 43 43 42 42 41 41 40 39 38 37 38 39 32 28 30 32 32 32 32 33 32 31 31 31 31 32 32
53 54 54 55 56 56 57 58 58 57 56 56 55 55 55 55 57 57 54 52 54 56 55 57 60 61 61 61 60 59 59 59 58 57 57 55 53 51 49 48 48 48 47 47 47 47 47 47 47 47 47 47 47 46 46 46 46 45 45 45 44 44 44 44 43 42 42 41 40 39 38 38 37 33 31 31 31 32 32 32 32 32 31 31 31 31 32 33
54 54 55 55 55 56 56 57 58 58 58 58 57 56 56 58 59 56 53 53 56 55 52 54 58 60 61 62 63 62 61 59 58 58 59 57 55 53 51 48 46 46 45 45 45 46 46 47 47 47 47 47 47 47 47 46 45 45 45 45 45 44 44 44 44 43 42 41 40 39 39 38 35 34 35 33 31 32 31 31 31 31 32 32 32 33 33 33
57 56 55 56 57 58 59 58 58 58 59 59 59 58 59 60 58 55 54 55 55 53 52 54 56 59 61 62 63 63 62 61 59 59 61 61 59 57 54 51 48 46 45 45 45 45 45 45 45 45 46 46 47 47 47 46 46 46 45 45 44 44 44 44 43 43 42 41 41 40 40 38 35 35 37 34 31 31 31 31 32 32 33 33 34 34 35 35
58 58 57 57 59 59 61 61 61 60 60 60 60 61 63 62 58 56 57 56 53 52 53 54 54 57 60 62 63 63 64 63 62 61 62 63 62 60 56 53 50 48 47 47 47 46 46 45 44 45 46 46 47 47 48 48 48 47 47 46 45 44 44 44 44 43 42 42 42 41 40 37 34 35 37 35 32 32 33 33 33 33 33 33 34 35 35 36
56 56 57 59 61 61 62 63 63 63 63 62 63 64 64 59 55 55 56 55 54 53 54 55 56 57 59 61 62 63 64 64 63 63 62 62 63 62 60 55 51 48 47 46 45 45 46 45 45 45 46 46 47 47 48 48 48 48 47 46 45 44 44 43 43 43 42 43 42 41 39 36 34 36 36 35 33 32 33 34 34 36 36 36 36 36 36 37
55 54 57 60 62 63 64 65 65 65 65 65 66 66 62 58 56 56 56 56 55 55 56 56 57 57 59 60 62 63 64 65 65 65 63 62 63 63 62 59 54 50 47 46 45 45 44 45 45 45 46 46 46 46 47 47 47 46 46 45 43 43 43 42 43 43 43 44 43 41 38 36 35 35 35 35 35 33 34 34 35 37 38 38 38 37 38 38
54 54 57 60 62 64 65 66 67 67 67 67 68 65 62 60 60 59 57 56 56 57 58 57 57 57 57 58 59 61 63 64 66 66 65 64 63 60 60 61 58 53 50 48 48 47 46 46 46 46 46 46 46 47 47 46 46 46 45 44 44 44 44 42 43 43 43 43 43 41 39 37 35 34 34 35 35 34 33 33 34 36 37 38 38 38 37 37
55 55 57 59 62 65 66 67 68 69 70 70 68 65 63 62 62 60 58 58 59 59 59 58 57 57 57 57 57 58 60 62 64 66 66 65 64 60 58 59 59 55 52 51 50 50 49 49 49 48 48 48 48 48 48 47 46 46 46 45 45 45 44 43 43 43 43 43 42 41 40 37 35 35 35 35 35 34 33 33 34 34 35 36 36 36 36 36
55 55 55 58 63 67 68 69 70 71 71 69 66 64 63 63 62 61 61 62 62 61 60 59 58 57 57 58 58 57 57 59 61 63 65 65 64 61 59 58 59 57 54 54 53 52 51 51 51 51 50 50 49 48 47 46 46 45 45 45 44 44 43 43 43 42 42 42 42 42 41 38 35 35 35 35 35 35 34 34 35 34 34 34 35 35 35 36
54 55 55 58 65 70 71 71 72 70 67 64 64 64 64 64 63 62 63 64 64 64 62 60 59 58 57 58 59 58 57 57 59 62 64 64 64 62 60 59 59 59 58 57 56 55 54 53 53 53 52 51 49 48 47 47 46 45 45 44 43 43 42 43 43 43 42 43 43 43 42 39 36 36 36 36 36 36 36 36 36 35 35 34 35 35 36 37
49 53 53 55 61 68 71 72 71 69 65 63 63 64 63 63 64 64 64 64 65 65 64 62 60 59 59 58 59 59 58 57 58 59 62 63 63 63 62 61 61 61 61 59 58 56 56 55 55 55 54 52 51 50 49 48 47 46 46 45 44 44 44 44 45 43 43 44 43 43 43 40 37 37 37 37 37 37 38 38 38 37 37 37 37 37 37 38
44 46 50 52 55 61 68 71 70 68 65 63 63 64 64 63 63 64 64 65 65 65 65 64 62 60 60 60 59 60 59 59 58 58 59 61 62 63 63 63 62 63 63 62 61 59 59 58 58 57 56 55 55 53 52 51 50 49 47 45 45 46 45 45 46 45 45 45 43 44 44 41 37 36 37 38 39 39 40 40 40 40 40 39 39 39 39 40
43 42 47 51 51 55 62 67 69 68 66 64 65 66 66 65 64 63 64 64 65 65 65 64 63 61 60 60 60 60 60 60 60 59 58 60 61 62 64 64 63 62 63 63 62 61 61 61 61 60 60 59 58 57 56 55 53 51 49 47 48 48 48 48 48 47 48 46 44 45 44 40 38 37 38 41 42 41 41 42 42 42 42 42 43 43 43 43
44 42 45 48 51 53 56 60 64 66 66 66 66 66 66 66 65 63 64 64 64 64 65 64 63 62 60 60 60 61 60 60 60 60 59 59 61 61 63 65 64 63 62 62 62 62 62 62 63 62 62 62 61 59 57 54 53 53 52 51 50 50 50 50 49 50 49 46 46 46 42 39 40 39 40 43 45 44 43 43 43 43 44 45 46 46 47 47
45 45 45 47 50 53 53 55 58 61 63 64 64 64 63 63 62 61 62 64 64 64 64 64 63 62 60 60 61 61 61 60 60 61 60 60 61 61 61 64 65 64 63 62 63 63 63 64 64 64 64 63 61 59 56 55 54 54 53 52 52 52 51 51 53 53 49 47 49 48 42 41 43 43 44 46 46 46 45 44 45 46 47 48 49 50 50 51
47 47 47 47 49 52 51 53 55 56 57 58 59 59 59 58 59 59 61 63 64 64 64 64 64 62 61 60 60 61 61 61 61 61 61 61 61 61 60 61 63 63 63 63 63 64 65 65 66 66 65 64 61 61 60 59 58 57 56 55 55 54 54 54 55 53 50 51 53 48 44 46 46 46 47 47 47 48 48 48 49 50 51 52 52 52 53 54
47 48 48 48 49 49 48 50 53 54 54 56 57 56 56 56 56 57 58 60 63 65 65 65 64 63 61 59 59 60 61 61 61 61 61 61 61 60 59 60 61 62 62 62 63 64 65 66 66 65 65 64 63 64 63 62 61 60 59 59 59 59 59 58 57 55 54 57 55 49 48 50 49 48 48 48 50 52 52 53 53 53 54 54 53 54 55 57
50 48 49 50 49 47 45 46 49 50 51 53 55 56 55 55 54 55 56 57 59 61 63 64 63 61 60 58 57 59 60 60 60 60 60 60 60 60 59 59 60 61 61 61 61 63 65 65 65 65 64 64 64 64 64 64 64 63 62 62 61 61 61 60 59 57 57 58 55 52 54 53 50 50 49 49 52 54 54 55 55 55 56 55 55 56 58 59
54 51 50 51 51 49 47 46 46 46 46 47 49 50 51 52 51 52 53 54 54 55 56 58 58 58 57 56 56 57 57 58 58 57 58 59 60 59 58 58 58 59 60 60 60 62 63 64 65 65 65 65 64 63 64 64 65 65 65 65 64 63 62 61 60 58 59 60 56 56 58 55 50 50 50 50 53 55 55 56 57 57 58 58 58 59 61 62
58 56 53 51 52 52 51 49 48 47 47 46 45 45 47 48 48 50 52 52 52 51 50 50 52 54 55 55 55 55 55 55 55 55 56 57 59 58 58 58 57 57 58 58 59 59 60 61 63 64 65 67 66 64 64 64 65 66 67 66 65 64 63 62 61 60 61 61 59 60 61 55 51 52 52 53 56 57 56 57 59 60 61 62 62 63 63 64
58 59 57 53 51 52 52 51 50 50 50 48 46 45 46 47 49 52 53 51 50 49 48 48 49 51 52 52 53 54 54 54 54 54 55 57 58 60 60 59 58 58 58 58 58 59 59 59 60 62 64 66 66 65 64 64 67 69 68 65 63 63 63 63 63 62 62 62 62 63 61 56 55 57 57 57 59 60 60 61 62 63 64 65 65 65 65 65
Wind_Direction
210 209 209 209 209 209 210 209 209 210 210 210 207 204 204 205 206 207 208 209 211 213 214 215 219 220 222 223 219 219 219 218 223 218 201 191 189 188 186 188 189 187 185 185 185 185 184 185 184 182 181 181 181 180 177 176 177 177 177 179 182 183 183 182 183 181 177 179 185 188 191 192 193 192 189 192 197 195 192 195 202 211 220 229 223 212 203 192
209 209 209 209 209 210 210 210 210 211 211 211 209 206 204 205 207 208 208 208 210 212 212 214 219 221 221 221 219 219 217 218 221 210 196 191 189 186 185 187 189 186 185 185 185 185 185 185 184 183 182 181 181 179 177 177 179 180 180 182 183 184 185 186 187 185 180 179 184 188 193 198 199 196 195 197 200 200 199 201 208 217 227 237 236 224 211 202
209 208 209 210 210 210 211 211 211 212 213 212 210 207 204 205 207 210 209 208 209 210 211 213 216 220 221 220 219 218 216 218 217 205 195 191 187 184 184 186 188 187 185 185 185 185 185 186 185 183 181 181 180 179 178 178 180 181 182 184 184 184 186 187 188 189 186 182 183 188 194 201 204 202 204 206 205 205 209 209 211 218 229 238 241 234 220 210
209 208 208 210 210 210 211 211 212 213 214 213 211 209 205 205 207 210 210 209 209 210 210 211 212 217 220 221 219 217 216 212 208 201 194 190 187 185 184 186 187 187 186 185 185 185 186 186 185 183 181 180 180 179 178 179 180 180 182 184 186 186 187 187 186 191 194 188 184 188 195 202 206 207 212 215 210 208 216 220 218 218 224 235 241 238 228 218
208 208 208 209 210 210 211 212 212 213 215 214 212 210 206 205 206 208 210 209 209 210 210 209 209 212 217 221 218 216 213 204 202 199 192 187 187 186 185 186 187 187 187 186 185 185 186 187 186 184 182 181 180 179 179 180 180 180 182 184 187 189 189 189 188 192 198 195 190 191 196 202 207 209 214 217 212 212 220 227 229 227 224 229 234 234 231 224
208 208 207 208 210 210 211 212 212 213 214 215 213 211 207 205 205 207 209 209 209 209 209 206 205 207 213 217 216 214 204 196 198 195 186 185 187 187 187 187 187 188 188 187 186 186 186 187 186 185 183 182 181 180 180 181 182 182 184 185 187 190 191 191 191 194 199 200 199 196 199 205 209 212 214 216 217 221 228 234 238 236 231 230 231 231 230 226
207 208 207 208 209 209 211 212 212 212 213 214 213 211 208 205 203 205 207 208 207 207 206 203 202 203 208 211 211 205 193 191 194 187 182 185 187 188 188 187 188 188 188 188 187 187 187 187 187 186 185 184 182 181 181 182 184 186 187 188 189 190 192 193 194 198 201 204 204 203 205 208 211 215 216 219 225 232 237 239 240 238 232 228 229 227 225 225
207 207 206 207 208 209 210 212 212 212 212 213 213 211 208 204 202 204 206 205 204 204 202 200 198 199 203 204 201 194 186 188 189 182 183 186 187 189 189 189 190 189 189 189 189 188 188 188 188 187 186 186 184 184 184 184 187 189 190 191 192 193 193 194 197 201 204 206 208 210 212 213 216 219 220 225 233 238 240 241 240 236 229 223 224 223 220 221
206 206 206 206 207 208 209 211 212 212 212 212 212 210 207 203 201 203 204 203 201 200 198 195 195 196 198 195 192 187 184 187 185 181 185 188 189 189 189 191 191 191 191 190 190 190 189 189 189 189 188 187 187 187 186 187 189 192 194 194 195 198 197 196 199 204 206 208 211 214 218 220 221 222 221 227 234 239 243 245 240 232 225 220 218 218 216 217
206 206 206 206 207 208 208 211 212 211 211 211 210 208 205 201 200 202 203 201 198 196 194 193 193 193 193 190 186 183 184 186 184 184 187 189 190 191 191 193 193 193 193 192 192 191 191 191 191 191 190 189 189 190 190 190 192 195 197 196 197 201 202 202 203 208 208 209 212 215 219 224 226 224 223 229 236 243 248 246 238 228 220 216 213 214 214 215
206 206 206 206 207 207 208 210 212 212 211 211 209 205 203 200 199 200 201 200 197 195 192 192 192 191 190 187 182 182 187 187 186 188 189 189 191 192 193 194 194 195 195 194 195 194 194 193 193 193 193 192 192 193 193 194 195 198 200 199 200 204 207 206 207 211 212 211 213 215 219 223 228 227 226 233 240 247 248 241 233 225 218 214 210 210 211 212
206 206 206 206 206 208 208 210 212 212 211 211 208 204 201 199 199 200 200 199 196 194 191 191 192 190 189 185 181 186 190 189 188 191 191 191 192 194 195 196 196 197 197 197 197 196 197 196 195 195 196 195 195 197 197 197 198 201 203 202 202 207 210 210 211 215 216 215 215 217 219 222 228 229 229 236 242 244 242 237 231 226 220 215 210 209 209 210
206 206 205 206 206 208 209 210 211 212 211 211 208 203 200 198 198 199 199 199 197 194 192 192 192 190 189 186 185 190 192 190 191 193 193 193 194 195 197 198 198 199 199 199 198 198 199 199 198 198 197 197 198 199 199 200 201 204 205 204 204 208 212 213 215 219 220 219 219 221 220 220 228 231 229 236 242 241 238 236 231 226 221 217 213 210 209 209
207 205 204 205 206 208 209 210 211 212 212 211 208 203 200 198 199 199 199 199 198 195 193 193 193 192 190 188 190 193 192 192 193 194 195 195 196 197 199 199 201 202 202 201 200 200 200 201 201 201 201 201 202 202 202 203 204 206 208 207 207 209 213 217 219 221 223 222 223 224 220 220 230 231 229 237 242 241 240 239 232 225 220 218 215 210 209 210
208 206 205 204 205 207 209 211 212 212 213 212 209 203 200 199 199 200 199 199 199 197 195 194 194 193 190 191 194 194 193 193 194 196 197 197 198 199 201 201 202 204 205 204 203 202 202 202 203 204 204 204 205 206 206 207 207 209 211 212 211 211 214 220 223 223 225 225 225 226 221 221 230 232 231 238 244 243 242 240 232 226 221 218 216 212 211 210
207 207 205 204 204 206 208 211 213 214 214 213 210 204 201 200 200 201 200 199 199 198 197 196 196 195 192 194 198 196 194 194 195 197 197 199 201 202 202 203 204 205 206 207 206 206 205 205 205 206 206 207 208 209 210 210 210 211 214 216 215 216 217 222 227 227 227 228 227 227 222 222 230 231 230 237 244 244 239 235 230 227 225 220 218 216 215 213
206 206 206 205 204 205 207 210 213 215 215 214 212 206 202 201 202 202 201 200 200 200 199 198 198 197 194 197 200 198 195 195 196 197 198 200 202 203 204 205 206 206 207 208 208 208 208 208 208 209 209 210 211 212 213 212 212 214 217 220 221 223 224 225 229 229 230 230 229 229 223 222 229 230 230 234 242 245 238 234 230 227 225 220 219 218 218 218
205 205 205 205 204 204 206 209 212 214 216 215 213 208 203 202 203 203 202 201 201 202 201 200 200 200 198 200 202 200 198 197 197 198 199 201 202 203 205 206 207 209 209 210 210 209 209 209 210 211 212 213 214 215 216 216 217 219 222 224 225 227 227 227 229 230 231 231 231 231 225 223 229 231 230 233 239 244 240 236 232 226 221 218 218 219 220 222
204 204 205 205 204 204 205 208 211 213 216 216 215 212 206 203 203 203 203 203 203 203 203 202 202 203 202 202 203 202 201 200 199 200 200 202 203 204 205 206 207 208 210 211 212 212 212 212 212 213 213 215 217 218 219 220 221 222 223 225 225 227 228 229 230 231 232 233 233 233 227 224 229 231 230 232 236 241 241 238 234 228 222 220 220 223 225 227
203 203 204 204 203 203 205 207 210 212 215 216 216 215 210 206 205 204 203 203 204 205 206 204 204 205 204 204 205 205 204 203 202 202 203 204 205 205 206 207 208 209 210 211 212 213 214 215 215 215 217 219 220 221 221 222 223 224 225 227 228 229 231 231 232 232 233 235 234 234 229 225 229 231 231 232 234 239 240 237 235 232 228 225 225 228 229 231
201 202 203 203 202 202 204 206 208 210 213 215 216 216 214 211 208 207 206 206 205 205 206 206 205 205 205 205 207 207 207 206 206 205 205 205 206 207 207 208 209 210 211 213 214 214 215 215 216 217 219 220 221 221 222 223 224 225 227 228 230 231 232 233 235 236 236 237 236 236 234 227 228 232 232 233 233 236 238 236 235 234 234 232 231 232 232 232
200 201 202 202 202 202 204 206 207 209 211 213 215 216 215 212 210 210 210 211 209 207 208 207 205 205 205 206 207 208 209 209 209 208 207 207 207 208 209 209 210 211 213 215 216 217 217 216 217 220 221 221 222 222 223 224 225 226 228 229 231 232 234 235 238 238 239 239 238 238 236 229 227 232 234 233 232 232 235 234 233 235 236 237 235 234 234 235
199 200 201 201 202 202 204 206 206 208 210 211 215 216 215 213 211 210 211 212 212 211 211 210 208 206 205 206 207 209 210 210 210 210 208 207 207 208 209 210 211 212 214 215 217 219 219 220 221 223 224 224 224 224 225 226 227 228 230 231 233 234 235 237 238 239 239 240 240 239 238 231 228 232 234 234 233 231 234 233 233 236 236 236 237 237 239 239
198 199 200 201 201 202 203 205 205 206 208 210 213 214 214 213 213 212 211 212 212 211 212 212 211 209 208 207 207 209 210 210 210 209 208 207 206 207 208 209 210 211 213 215 217 218 219 221 223 224 225 225 226 226 227 228 229 230 231 233 234 235 236 237 238 240 240 241 241 240 239 233 228 231 233 235 235 231 233 233 231 235 236 236 239 241 242 242
198 199 200 201 201 202 203 204 204 205 207 210 212 213 213 213 213 214 213 213 213 212 211 211 211 211 210 209 209 210 212 212 211 209 207 206 205 206 207 209 210 211 212 214 216 218 219 220 222 223 223 224 225 226 227 229 230 230 231 233 234 235 236 237 239 240 241 242 241 240 242 237 229 231 233 234 236 232 232 233 230 233 237 239 241 242 243 244
198 199 200 201 202 202 203 204 204 205 207 210 211 212 213 213 213 214 214 215 215 214 213 212 211 211 211 210 210 211 213 215 214 212 209 207 206 205 206 208 210 211 212 213 215 217 218 220 222 223 224 224 224 225 226 228 229 230 231 233 234 235 237 238 239 240 240 241 242 241 243 242 232 230 233 234 236 236 234 233 231 233 237 240 241 244 246 246
198 199 199 200 202 203 204 205 205 206 208 210 210 212 213 213 214 214 215 216 215 214 214 213 212 212 212 211 211 211 214 216 217 216 213 211 209 207 207 207 209 212 213 215 216 216 217 219 221 224 224 225 225 226 227 229 230 231 232 233 234 235 236 238 238 240 241 242 242 242 244 245 237 229 233 235 236 239 238 235 233 235 238 240 242 246 249 249
200 199 199 199 201 203 204 205 205 206 209 210 210 211 212 213 214 214 215 217 215 213 214 214 212 212 213 212 211 211 213 216 218 218 216 213 212 210 209 208 209 212 215 216 217 217 218 220 221 223 224 225 226 226 227 228 230 231 231 233 234 236 237 238 239 240 242 242 243 243 243 247 243 230 230 237 238 239 241 239 237 238 241 243 243 245 248 250
200 200 199 199 201 203 204 205 206 207 210 211 211 212 212 212 213 214 215 217 216 214 214 214 213 213 213 212 212 213 214 215 217 218 217 215 213 212 212 211 211 213 214 216 217 218 219 221 222 223 224 224 225 225 226 226 228 229 230 232 233 236 237 238 239 240 241 242 243 243 242 246 247 234 227 236 240 240 241 241 241 243 245 245 245 245 247 250
201 201 200 200 201 203 205 207 208 210 211 212 211 213 213 214 214 215 215 215 216 216 215 215 215 214 214 213 212 213 215 216 217 217 217 215 214 214 214 214 214 215 215 216 217 218 219 221 222 223 224 225 225 226 226 226 227 228 229 231 233 235 236 237 238 239 240 242 242 243 242 245 249 240 229 233 239 241 241 243 244 245 246 247 247 247 248 250
201 201 202 202 202 204 206 208 209 211 213 214 214 214 214 215 216 217 216 215 217 218 216 215 216 215 216 215 215 216 217 218 218 217 217 216 214 214 215 215 216 217 217 217 218 219 220 221 222 223 224 225 226 227 228 228 228 229 230 231 232 234 235 236 238 238 240 242 243 243 243 244 248 247 236 233 237 240 242 244 245 246 247 248 249 250 250 251
204 204 204 204 204 205 207 209 210 211 213 215 217 217 216 216 217 217 215 215 218 219 217 217 217 217 217 217 217 218 220 221 221 219 217 216 215 215 215 217 217 218 219 219 220 221 222 223 223 224 224 225 226 228 229 230 230 231 231 232 232 234 235 236 238 239 241 243 243 244 244 245 248 250 244 237 236 239 242 244 246 248 250 251 251 252 252 253
207 207 207 207 208 208 209 210 210 211 212 214 217 218 218 219 219 217 215 216 219 219 218 219 219 219 219 219 218 219 220 222 222 221 220 217 216 215 216 217 218 220 221 222 224 225 225 225 225 226 226 227 229 230 231 232 233 234 234 235 235 235 237 238 239 240 242 243 244 245 245 246 247 249 247 242 238 239 242 245 247 247 249 250 251 252 253 254
209 207 207 208 209 210 211 212 212 213 214 215 217 218 220 222 220 218 217 218 219 219 219 220 219 220 221 221 220 220 221 222 222 221 221 220 218 216 216 216 217 219 221 223 225 226 228 229 229 230 230 231 232 232 233 234 234 234 234 235 235 236 238 239 240 241 242 242 244 244 245 246 246 247 249 247 243 241 242 244 245 246 246 247 249 250 252 253
211 209 208 209 210 210 211 212 213 215 217 217 218 219 220 221 219 218 219 220 220 220 221 222 221 221 222 222 222 221 221 222 222 222 222 223 222 220 218 217 217 218 220 222 224 225 226 227 228 229 231 231 232 233 233 234 234 234 234 234 234 235 236 238 239 240 241 242 242 244 245 246 247 248 250 249 245 243 243 244 246 247 247 247 248 249 251 252
212 210 208 209 211 211 211 212 213 216 218 219 221 221 220 219 218 219 221 221 221 221 223 224 223 222 223 223 223 222 222 222 223 224 224 225 225 223 221 220 219 220 222 225 227 228 229 229 228 228 229 230 231 232 233 234 235 235 236 236 237 237 238 238 240 240 241 242 242 244 245 246 246 247 249 250 248 245 244 245 247 249 250 250 250 251 252 253
213 210 208 209 212 213 212 213 214 216 218 220 222 222 220 218 219 220 220 221 221 222 224 225 225 224 224 224 224 224 224 223 223 224 225 227 228 226 223 221 220 220 222 227 230 231 232 233 232 231 232 232 232 232 233 234 235 236 237 237 238 238 238 238 240 240 241 242 243 244 245 245 246 247 249 251 250 247 245 246 246 248 251 252 253 253 254 255
213 212 210 209 211 214 215 214 215 216 218 220 221 220 219 219 220 220 220 221 222 223 225 226 226 226 226 226 226 226 226 225 225 225 226 227 229 229 226 223 221 220 221 225 229 231 232 234 234 233 233 233 233 234 234 234 235 236 236 236 237 238 238 238 240 241 242 244 244 244 245 244 245 246 247 249 249 248 247 246 247 248 250 252 254 254 255 256
214 213 213 210 211 214 216 216 216 217 218 220 220 220 220 220 221 221 221 221 222 224 226 226 226 227 227 227 228 228 228 228 227 227 228 228 229 230 228 225 223 223 223 225 229 230 232 234 235 234 234 234 234 234 234 234 234 235 236 236 236 238 239 239 240 241 243 244 245 245 244 243 243 244 244 246 248 249 249 248 248 248 249 250 252 254 256 257
216 216 216 214 211 213 216 217 216 217 219 221 222 223 223 223 222 222 222 222 223 224 226 226 226 227 227 227 227 228 229 229 229 229 230 230 230 231 229 227 225 225 226 228 230 231 233 235 236 236 236 236 236 236 236 236 236 236 236 237 237 239 240 240 241 241 243 245 245 245 244 242 241 243 244 245 247 249 249 250 250 251 251 252 253 254 255 257
218 218 218 217 214 212 214 216 216 217 220 222 223 224 224 224 224 223 223 223 224 225 226 227 227 227 227 227 228 228 228 229 229 229 230 230 231 231 231 230 228 227 228 229 230 231 233 235 237 238 238 238 238 238 238 238 238 237 237 238 238 239 240 241 241 240 242 244 245 245 244 241 240 242 243 244 246 247 249 250 252 253 253 253 253 253 254 255
215 216 217 217 215 214 215 217 217 218 220 221 222 223 224 225 225 225 225 225 225 225 226 228 228 227 227 227 228 228 228 229 229 229 230 230 231 231 232 231 231 231 231 231 232 233 235 237 238 240 240 240 240 239 239 239 239 238 238 237 238 239 239 241 242 241 242 243 244 246 244 240 239 243 245 246 247 248 249 251 253 254 254 254 254 254 254 255
212 213 214 214 215 215 215 217 218 218 219 221 222 223 224 225 226 227 227 227 227 227 227 228 229 229 228 227 228 228 228 229 229 229 229 230 230 231 231 231 231 232 232 233 233 234 235 237 239 240 241 241 241 240 240 240 239 239 239 238 240 241 240 242 243 242 243 242 243 246 245 242 242 245 248 250 250 250 252 253 255 256 257 258 259 258 258 259
211 212 212 211 213 214 215 216 218 218 219 220 221 222 224 225 226 228 229 229 229 229 229 229 230 230 229 228 228 229 229 229 229 229 229 229 229 229 231 232 232 232 233 234 234 235 237 238 238 239 240 240 240 240 239 240 240 241 241 241 241 242 242 243 243 244 244 243 244 246 246 245 247 249 250 252 253 253 254 256 258 260 262 263 264 264 263 263
211 212 211 211 213 214 214 215 217 219 220 220 221 222 223 223 225 227 228 230 230 230 230 231 231 232 231 230 230 230 230 229 229 229 229 229 229 229 230 231 232 233 234 234 235 236 238 239 239 240 241 241 241 241 241 242 244 245 244 244 245 245 246 247 247 248 247 246 248 249 248 248 250 251 251 253 255 255 257 259 262 265 266 266 266 265 265 265
214 214 213 211 213 214 214 215 217 219 220 221 222 223 223 223 225 227 229 231 231 230 230 231 231 232 232 231 231 231 231 230 229 229 229 230 230 230 230 232 232 233 233 234 235 236 238 239 239 240 241 242 243 244 245 246 247 247 247 248 249 249 250 250 251 250 250 251 251 250 249 248 249 251 252 254 258 260 261 262 264 264 264 264 265 266 266 268
213 216 217 215 215 215 215 216 218 219 220 221 222 224 224 226 228 230 231 232 233 232 231 231 231 232 232 232 232 232 232 232 231 230 229 230 231 231 231 232 233 234 234 235 236 237 238 239 239 240 242 242 243 244 244 244 245 246 246 247 247 248 249 250 250 250 251 252 250 248 249 248 247 250 254 256 259 261 261 261 261 262 263 264 266 267 269 270
209 215 218 220 219 218 217 218 220 221 221 221 222 223 225 227 229 232 234 235 235 234 232 232 231 232 233 233 233 233 233 234 233 231 230 231 231 232 232 232 234 235 235 236 237 238 239 240 241 242 243 243 244 245 245 245 246 246 246 246 246 247 248 248 250 249 250 252 251 249 250 249 247 249 252 255 257 259 260 261 262 263 264 266 267 269 270 270
205 211 215 218 219 218 217 218 220 222 224 225 225 225 226 228 230 233 236 237 237 236 234 233 232 233 234 235 234 234 234 235 235 234 233 233 233 234 234 234 234 236 237 238 238 240 241 241 242 243 244 244 244 246 246 247 247 247 247 247 247 248 249 250 251 251 252 254 254 252 252 250 250 252 254 256 259 261 263 265 265 265 266 267 268 269 270 270
202 208 213 217 218 218 217 218 219 221 224 227 228 229 230 231 232 234 236 238 238 238 236 234 234 234 235 235 234 234 234 236 236 236 235 235 235 235 236 236 236 237 238 239 240 240 242 242 243 243 244 244 244 246 247 247 248 248 247 247 247 248 250 251 253 254 255 256 256 255 255 253 253 256 258 259 261 261 263 265 266 267 267 267 267 268 269 270
201 206 209 213 217 219 220 220 221 222 224 225 226 228 229 231 232 234 236 237 237 237 236 235 234 235 234 233 233 233 233 234 235 235 235 235 235 235 236 237 237 237 238 239 240 241 242 243 243 244 245 245 245 247 248 248 249 248 247 247 248 250 252 254 255 255 256 257 257 256 256 256 256 258 259 259 260 260 261 262 264 265 266 266 267 268 269 271
201 203 204 206 211 217 220 221 222 224 225 225 225 227 229 230 231 233 234 234 235 235 235 233 233 234 233 232 232 232 232 233 234 234 234 234 234 235 235 236 236 236 237 238 240 241 242 243 244 244 245 246 246 247 248 248 248 247 247 249 252 253 255 255 255 255 256 258 258 258 259 258 259 259 258 258 259 260 260 260 261 262 264 265 267 268 269 271
Height
5699 5703 5708 5712 5715 5719 5722 5725 5728 5732 5735 5739 5743 5746 5749 5752 5755 5757 5760 5763 5765 5767 5769 5772 5774 5776 5779 5781 5783 5785 5788 5791 5794 5797 5799 5799 5802 5806 5813 5819 5822 5826 5829 5833 5837 5841 5844 5847 5850 5853 5856 5858 5860 5862 5864 5866 5868 5869 5871 5873 5875 5876 5877 5878 5879 5881 5882 5884 5885 5886 5887 5888 5889 5890 5890 5891 5891 5891 5892 5892 5893 5893 5893 5894 5895 5895 5895 5896
5696 5700 5705 5709 5712 5716 5719 5722 5725 5729 5732 5736 5740 5743 5746 5749 5752 5755 5758 5761 5763 5765 5767 5769 5771 5773 5775 5778 5780 5783 5786 5788 5791 5794 5796 5798 5800 5805 5811 5816 5821 5824 5828 5832 5836 5839 5843 5846 5849 5851 5854 5857 5859 5861 5863 5865 5867 5869 5871 5872 5874 5875 5876 5877 5879 5880 5882 5883 5885 5886 5886 5887 5888 5889 5890 5890 5891 5891 5891 5892 5892 5893 5893 5893 5894 5895 5895 5895
5692 5697 5701 5705 5709 5713 5716 5719 5722 5726 5729 5733 5737 5740 5744 5747 5749 5752 5755 5758 5760 5763 5765 5766 5768 5770 5772 5774 5777 5780 5783 5785 5788 5790 5793 5797 5799 5803 5809 5813 5818 5823 5826 5830 5834 5837 5841 5844 5847 5850 5853 5856 5858 5860 5862 5864 5866 5868 5870 5871 5873 5874 5875 5877 5878 5880 5881 5882 5884 5885 5886 5886 5887 5888 5889 5890 5890 5890 5891 5891 5892 5893 5893 5893 5893 5894 5895 5895
5689 5693 5698 5702 5706 5710 5713 5717 5720 5723 5726 5730 5734 5737 5741 5744 5747 5749 5752 5755 5758 5760 5762 5764 5766 5767 5769 5771 5774 5776 5779 5782 5785 5787 5791 5796 5799 5803 5807 5811 5816 5821 5825 5828 5832 5836 5839 5843 5846 5849 5852 5854 5857 5859 5861 5863 5865 5867 5869 5870 5872 5873 5874 5876 5877 5879 5881 5882 5883 5884 5885 5886 5886 5887 5888 5889 5890 5890 5890 5891 5892 5892 5893 5893 5893 5893 5894 5894
5685 5689 5694 5699 5703 5707 5711 5714 5717 5720 5723 5727 5731 5735 5738 5741 5744 5747 5750 5752 5755 5758 5760 5762 5764 5765 5766 5768 5771 5773 5777 5780 5783 5786 5790 5795 5800 5804 5806 5810 5815 5819 5823 5827 5830 5834 5837 5841 5845 5848 5851 5853 5856 5858 5860 5862 5864 5866 5867 5869 5870 5872 5873 5875 5876 5878 5879 5881 5882 5883 5884 5885 5885 5886 5887 5888 5889 5889 5890 5890 5891 5892 5892 5892 5892 5892 5893 5894
5682 5686 5691 5696 5700 5704 5708 5711 5714 5717 5720 5724 5728 5732 5736 5739 5742 5745 5747 5750 5753 5756 5758 5760 5761 5763 5765 5766 5769 5772 5775 5779 5781 5785 5790 5794 5800 5803 5805 5809 5813 5818 5822 5825 5829 5832 5836 5840 5843 5847 5850 5852 5854 5857 5859 5861 5863 5864 5866 5867 5869 5870 5872 5873 5875 5876 5878 5879 5880 5881 5882 5884 5884 5885 5887 5887 5888 5889 5889 5890 5890 5891 5891 5891 5891 5892 5892 5893
5678 5683 5688 5692 5697 5701 5705 5708 5712 5715 5718 5722 5725 5729 5733 5737 5740 5743 5746 5748 5751 5753 5755 5758 5759 5762 5763 5765 5768 5771 5775 5778 5780 5784 5789 5794 5798 5802 5805 5808 5812 5817 5821 5824 5827 5830 5834 5838 5842 5845 5848 5851 5853 5856 5858 5860 5862 5863 5864 5866 5867 5869 5870 5872 5874 5875 5876 5878 5879 5880 5881 5882 5883 5884 5885 5886 5887 5888 5888 5889 5889 5890 5890 5890 5891 5891 5892 5892
5675 5679 5684 5689 5693 5698 5702 5705 5709 5713 5716 5719 5723 5727 5731 5735 5738 5741 5744 5746 5749 5751 5753 5756 5758 5760 5762 5765 5767 5770 5774 5776 5779 5784 5788 5793 5797 5801 5804 5807 5811 5815 5819 5822 5825 5829 5833 5836 5840 5843 5846 5849 5852 5855 5857 5859 5860 5862 5863 5864 5866 5867 5869 5871 5872 5873 5875 5876 5878 5879 5880 5881 5882 5883 5884 5885 5886 5886 5887 5888 5888 5889 5889 5890 5890 5891 5891 5891
5672 5677 5681 5686 5690 5694 5699 5702 5706 5710 5714 5717 5721 5724 5729 5732 5736 5739 5742 5745 5747 5749 5752 5754 5757 5759 5761 5764 5767 5771 5774 5776 5779 5784 5787 5792 5796 5799 5803 5806 5810 5814 5817 5821 5824 5827 5831 5835 5838 5841 5844 5847 5850 5853 5855 5857 5858 5860 5861 5863 5864 5866 5867 5869 5871 5872 5874 5875 5877 5878 5879 5880 5880 5882 5883 5884 5884 5885 5886 5886 5887 5888 5888 5889 5889 5890 5890 5891
5669 5674 5678 5683 5687 5691 5696 5700 5703 5707 5711 5715 5718 5722 5726 5730 5733 5737 5740 5743 5745 5748 5750 5753 5756 5758 5761 5764 5767 5771 5773 5775 5779 5783 5786 5791 5795 5798 5802 5805 5809 5812 5816 5819 5822 5826 5829 5833 5836 5839 5842 5845 5848 5850 5853 5855 5857 5858 5860 5861 5863 5864 5866 5867 5869 5871 5872 5874 5875 5876 5877 5878 5879 5880 5882 5882 5883 5884 5885 5885 5886 5887 5887 5888 5889 5889 5890 5890
5666 5671 5676 5680 5685 5689 5693 5697 5701 5705 5709 5713 5716 5720 5724 5728 5731 5735 5738 5741 5744 5746 5749 5752 5755 5758 5761 5764 5767 5770 5772 5775 5779 5782 5785 5789 5793 5797 5800 5804 5807 5811 5814 5817 5820 5824 5827 5830 5833 5837 5840 5842 5845 5848 5850 5853 5855 5857 5858 5860 5861 5862 5864 5866 5867 5869 5871 5872 5874 5875 5876 5877 5878 5879 5880 5881 5882 5883 5883 5884 5885 5886 5887 5887 5888 5888 5889 5889
5664 5669 5674 5678 5683 5687 5691 5695 5699 5703 5707 5710 5714 5717 5721 5725 5729 5732 5736 5739 5742 5745 5748 5751 5754 5757 5760 5764 5767 5768 5770 5774 5778 5781 5784 5788 5792 5795 5799 5802 5806 5809 5812 5815 5818 5822 5825 5828 5831 5834 5837 5841 5843 5846 5848 5851 5853 5855 5857 5858 5860 5861 5862 5864 5866 5867 5869 5871 5872 5874 5875 5876 5876 5877 5879 5879 5880 5881 5882 5883 5884 5885 5886 5886 5887 5887 5888 5888
5661 5666 5671 5676 5680 5684 5688 5693 5697 5700 5704 5708 5711 5715 5718 5722 5726 5730 5733 5737 5740 5743 5746 5749 5753 5756 5759 5764 5765 5766 5769 5773 5776 5780 5783 5786 5790 5794 5797 5801 5804 5808 5810 5813 5817 5820 5823 5826 5829 5832 5835 5838 5841 5844 5846 5849 5851 5853 5855 5856 5858 5859 5861 5863 5864 5866 5867 5869 5871 5872 5873 5875 5874 5875 5877 5878 5879 5880 5880 5881 5883 5884 5885 5885 5886 5887 5887 5888
5658 5663 5669 5673 5678 5682 5686 5690 5694 5698 5702 5705 5709 5712 5716 5720 5723 5727 5731 5734 5738 5741 5744 5748 5751 5754 5758 5762 5763 5764 5768 5772 5775 5778 5781 5785 5789 5792 5796 5799 5803 5806 5809 5812 5815 5818 5821 5825 5827 5830 5833 5836 5839 5842 5844 5846 5848 5851 5852 5854 5856 5858 5860 5861 5863 5864 5866 5867 5869 5870 5872 5873 5873 5874 5876 5876 5877 5878 5879 5880 5881 5882 5883 5884 5885 5886 5886 5887
5655 5661 5666 5671 5675 5680 5684 5688 5692 5696 5700 5703 5706 5709 5713 5717 5721 5725 5728 5732 5736 5739 5742 5746 5750 5753 5757 5760 5761 5763 5767 5770 5773 5776 5780 5784 5787 5791 5794 5797 5801 5805 5808 5810 5813 5816 5819 5822 5825 5828 5831 5834 5837 5840 5842 5844 5846 5848 5850 5852 5854 5857 5859 5860 5861 5863 5864 5866 5867 5868 5870 5871 5871 5873 5874 5874 5875 5877 5878 5879 5880 5881 5882 5883 5884 5885 5885 5886
5652 5658 5663 5668 5673 5677 5682 5686 5690 5694 5697 5701 5704 5707 5711 5715 5718 5722 5726 5730 5734 5737 5740 5744 5748 5751 5755 5758 5759 5762 5765 5768 5772 5775 5778 5782 5785 5789 5792 5795 5799 5802 5806 5809 5811 5814 5816 5820 5822 5826 5829 5832 5835 5838 5840 5842 5844 5846 5848 5851 5853 5855 5857 5858 5859 5861 5862 5863 5865 5866 5869 5870 5870 5871 5872 5872 5873 5875 5876 5877 5879 5880 5881 5882 5882 5883 5884 5885
5649 5655 5660 5665 5670 5675 5679 5683 5687 5691 5695 5698 5701 5705 5708 5712 5716 5720 5724 5727 5731 5735 5738 5742 5746 5749 5753 5755 5757 5760 5764 5767 5770 5773 5776 5780 5783 5787 5790 5793 5797 5800 5803 5806 5809 5812 5814 5817 5820 5824 5827 5830 5832 5835 5837 5839 5842 5845 5847 5850 5852 5853 5855 5856 5857 5858 5860 5861 5863 5864 5867 5868 5868 5869 5870 5871 5871 5873 5875 5876 5877 5878 5879 5880 5881 5882 5883 5883
5646 5652 5657 5662 5667 5672 5676 5680 5684 5688 5692 5695 5699 5702 5705 5709 5713 5717 5721 5725 5729 5732 5735 5739 5743 5746 5749 5752 5755 5758 5762 5765 5768 5771 5774 5778 5781 5784 5788 5791 5794 5797 5801 5803 5806 5809 5812 5815 5818 5821 5824 5827 5830 5833 5836 5839 5842 5844 5846 5847 5849 5850 5852 5853 5854 5855 5857 5859 5860 5862 5865 5866 5866 5867 5869 5869 5870 5871 5873 5874 5875 5877 5878 5878 5879 5880 5881 5882
5643 5649 5654 5659 5664 5669 5673 5677 5681 5685 5689 5693 5696 5700 5703 5707 5711 5715 5719 5723 5726 5729 5732 5736 5740 5743 5747 5750 5752 5756 5759 5762 5766 5769 5772 5776 5779 5782 5785 5788 5791 5795 5798 5801 5804 5807 5810 5813 5816 5819 5823 5826 5829 5832 5835 5838 5839 5840 5842 5844 5845 5847 5848 5850 5851 5853 5855 5856 5858 5860 5862 5863 5864 5865 5867 5867 5868 5869 5871 5872 5873 5875 5876 5877 5878 5878 5879 5880
5640 5645 5651 5656 5661 5666 5670 5674 5678 5682 5686 5690 5694 5698 5701 5705 5708 5712 5716 5720 5723 5727 5731 5735 5738 5741 5745 5748 5750 5754 5757 5760 5763 5767 5770 5773 5777 5780 5783 5786 5789 5792 5795 5799 5802 5805 5809 5811 5815 5819 5823 5825 5827 5830 5832 5834 5835 5837 5839 5840 5842 5844 5845 5847 5848 5850 5852 5853 5855 5857 5859 5861 5861 5863 5864 5865 5866 5868 5869 5870 5871 5872 5873 5875 5876 5877 5878 5878
5637 5642 5647 5652 5657 5662 5666 5670 5675 5679 5683 5688 5691 5696 5700 5704 5708 5712 5715 5717 5720 5724 5727 5731 5735 5739 5742 5745 5748 5752 5755 5758 5761 5764 5768 5771 5774 5777 5780 5783 5787 5790 5793 5796 5800 5803 5806 5809 5814 5817 5819 5821 5823 5826 5828 5830 5832 5834 5836 5837 5839 5841 5842 5844 5846 5848 5850 5851 5853 5854 5856 5858 5860 5860 5861 5863 5865 5867 5867 5868 5869 5870 5871 5873 5874 5875 5876 5876
5634 5639 5644 5649 5654 5659 5663 5667 5671 5676 5681 5685 5689 5694 5698 5701 5705 5709 5713 5715 5718 5721 5724 5727 5731 5735 5739 5742 5745 5749 5752 5755 5759 5762 5765 5768 5772 5775 5778 5781 5785 5788 5791 5794 5798 5801 5804 5808 5811 5812 5814 5817 5819 5822 5825 5827 5829 5831 5833 5834 5836 5838 5840 5842 5844 5846 5847 5848 5850 5851 5853 5856 5857 5857 5859 5861 5863 5865 5865 5866 5867 5868 5869 5871 5872 5873 5873 5874
5631 5636 5641 5646 5651 5655 5659 5664 5668 5674 5679 5683 5687 5690 5694 5697 5700 5703 5707 5710 5715 5719 5722 5725 5729 5731 5735 5738 5741 5745 5748 5752 5756 5759 5763 5766 5769 5772 5776 5779 5782 5785 5788 5792 5795 5799 5803 5806 5807 5809 5812 5815 5817 5819 5822 5824 5826 5828 5830 5832 5834 5836 5838 5840 5841 5842 5844 5845 5847 5848 5850 5853 5855 5855 5857 5858 5861 5862 5863 5864 5865 5866 5867 5868 5869 5870 5871 5872
5627 5632 5637 5642 5647 5652 5656 5661 5666 5671 5676 5680 5683 5686 5690 5693 5696 5699 5702 5706 5709 5714 5718 5722 5726 5729 5732 5734 5738 5741 5745 5748 5752 5756 5759 5763 5766 5770 5773 5776 5779 5782 5785 5789 5792 5796 5799 5802 5804 5807 5810 5812 5814 5816 5819 5821 5823 5825 5828 5830 5832 5833 5835 5836 5838 5839 5841 5842 5844 5845 5846 5850 5852 5853 5854 5855 5857 5860 5860 5861 5863 5864 5865 5865 5866 5867 5868 5869
5624 5629 5634 5639 5644 5649 5653 5658 5663 5668 5672 5675 5678 5683 5686 5689 5692 5695 5699 5702 5705 5708 5712 5717 5722 5726 5729 5733 5736 5738 5741 5745 5748 5751 5755 5759 5762 5766 5770 5773 5776 5779 5783 5786 5788 5791 5794 5797 5800 5803 5805 5808 5811 5813 5816 5818 5820 5822 5825 5827 5828 5830 5831 5833 5834 5836 5837 5839 5841 5842 5843 5846 5849 5850 5851 5853 5854 5857 5858 5859 5861 5861 5862 5862 5863 5865 5865 5867
5620 5625 5631 5636 5641 5645 5649 5655 5660 5664 5668 5671 5675 5679 5681 5684 5687 5691 5694 5697 5700 5704 5708 5713 5717 5721 5725 5729 5733 5736 5738 5741 5744 5748 5751 5755 5758 5762 5766 5770 5773 5776 5779 5782 5784 5787 5791 5794 5797 5800 5802 5804 5807 5809 5812 5814 5816 5819 5821 5823 5825 5826 5828 5829 5831 5832 5834 5835 5838 5839 5840 5842 5846 5848 5848 5850 5851 5853 5855 5857 5858 5859 5859 5859 5860 5861 5863 5864
5616 5622 5627 5632 5638 5642 5647 5652 5657 5661 5664 5667 5671 5674 5677 5680 5683 5686 5690 5691 5694 5700 5705 5709 5714 5719 5723 5726 5729 5732 5735 5738 5742 5745 5748 5752 5756 5759 5762 5766 5770 5773 5775 5778 5781 5785 5789 5792 5794 5797 5799 5801 5804 5807 5809 5811 5813 5816 5819 5820 5821 5823 5824 5826 5827 5829 5830 5832 5834 5836 5837 5838 5842 5846 5846 5847 5849 5850 5852 5854 5855 5856 5855 5856 5858 5859 5860 5861
5613 5618 5623 5629 5633 5638 5643 5648 5652 5657 5660 5662 5666 5669 5671 5675 5678 5681 5683 5684 5689 5696 5701 5706 5712 5716 5720 5723 5726 5729 5733 5737 5740 5742 5746 5749 5752 5756 5759 5762 5766 5768 5771 5775 5779 5783 5786 5788 5791 5793 5796 5799 5802 5804 5806 5808 5810 5812 5815 5816 5817 5819 5820 5822 5824 5825 5827 5829 5830 5832 5834 5833 5837 5843 5844 5844 5846 5847 5849 5851 5852 5852 5852 5854 5856 5857 5857 5858
5609 5614 5619 5623 5628 5633 5639 5643 5648 5651 5652 5657 5661 5664 5666 5669 5672 5674 5675 5679 5686 5693 5698 5703 5708 5712 5715 5720 5724 5727 5731 5734 5737 5740 5744 5746 5749 5753 5756 5759 5762 5764 5767 5771 5775 5778 5781 5784 5787 5789 5793 5796 5799 5800 5801 5803 5805 5808 5810 5811 5813 5815 5817 5819 5820 5822 5823 5825 5827 5829 5831 5830 5832 5839 5842 5842 5843 5845 5846 5847 5848 5848 5850 5851 5852 5853 5854 5855
5605 5610 5615 5620 5625 5630 5636 5640 5643 5645 5648 5652 5656 5658 5661 5663 5665 5666 5669 5677 5685 5690 5695 5700 5704 5709 5712 5716 5720 5724 5728 5731 5734 5738 5740 5743 5746 5750 5752 5755 5758 5761 5764 5768 5771 5774 5777 5779 5782 5786 5789 5792 5794 5795 5797 5799 5801 5803 5805 5806 5809 5810 5812 5814 5816 5818 5819 5820 5824 5825 5827 5828 5828 5835 5840 5840 5840 5842 5843 5844 5844 5845 5847 5848 5849 5850 5851 5851
5602 5607 5611 5617 5622 5626 5631 5634 5637 5641 5644 5647 5650 5652 5654 5657 5659 5661 5667 5679 5684 5685 5691 5697 5701 5706 5711 5715 5719 5722 5724 5727 5731 5733 5736 5740 5743 5745 5748 5751 5754 5758 5761 5764 5767 5770 5773 5776 5779 5782 5785 5787 5789 5791 5792 5794 5796 5799 5800 5803 5805 5806 5808 5810 5812 5814 5815 5817 5820 5821 5824 5825 5825 5831 5837 5837 5837 5838 5839 5840 5841 5842 5843 5844 5845 5846 5847 5847
5599 5604 5609 5613 5617 5621 5625 5627 5632 5636 5639 5642 5645 5646 5649 5651 5652 5657 5670 5679 5678 5681 5690 5695 5699 5705 5709 5713 5716 5719 5721 5723 5727 5730 5733 5736 5739 5742 5745 5748 5751 5755 5758 5761 5764 5767 5770 5772 5775 5778 5781 5783 5784 5786 5788 5791 5793 5795 5797 5799 5800 5801 5803 5805 5807 5809 5811 5814 5816 5818 5820 5821 5823 5828 5832 5833 5834 5835 5836 5837 5838 5839 5840 5840 5841 5842 5842 5843
5595 5600 5605 5609 5613 5617 5620 5623 5628 5630 5633 5637 5639 5641 5644 5643 5648 5660 5671 5673 5673 5680 5689 5692 5697 5702 5704 5707 5710 5713 5716 5720 5724 5727 5729 5732 5735 5738 5741 5745 5749 5752 5756 5760 5762 5764 5767 5769 5772 5775 5777 5779 5781 5783 5786 5789 5791 5792 5794 5795 5797 5798 5800 5802 5804 5806 5808 5811 5812 5814 5816 5818 5822 5824 5825 5828 5831 5832 5833 5834 5834 5835 5836 5836 5837 5838 5838 5839
5591 5596 5601 5605 5609 5613 5616 5620 5624 5626 5628 5630 5632 5636 5637 5639 5650 5663 5667 5667 5672 5680 5685 5687 5692 5696 5698 5702 5706 5709 5712 5714 5718 5722 5725 5728 5730 5733 5737 5741 5745 5749 5753 5756 5758 5761 5763 5766 5770 5773 5775 5777 5779 5781 5783 5785 5786 5787 5789 5791 5793 5795 5797 5798 5800 5802 5804 5806 5808 5810 5811 5814 5819 5821 5821 5824 5827 5829 5830 5830 5831 5831 5832 5832 5833 5834 5834 5834
5587 5592 5598 5601 5605 5609 5613 5616 5619 5621 5623 5624 5627 5629 5630 5639 5653 5659 5661 5665 5672 5678 5681 5683 5687 5690 5692 5696 5700 5703 5707 5710 5713 5717 5720 5723 5727 5731 5735 5738 5742 5745 5748 5751 5754 5756 5759 5762 5766 5769 5771 5773 5775 5776 5778 5779 5780 5782 5784 5786 5789 5791 5792 5794 5795 5797 5800 5801 5803 5805 5808 5812 5816 5817 5817 5819 5823 5825 5825 5826 5826 5827 5828 5829 5829 5830 5830 5830
5582 5588 5593 5597 5600 5605 5608 5611 5614 5616 5618 5620 5621 5622 5629 5643 5654 5656 5659 5664 5670 5674 5676 5677 5680 5683 5686 5690 5694 5698 5702 5706 5709 5712 5715 5720 5723 5728 5732 5736 5739 5743 5746 5749 5752 5754 5756 5759 5762 5764 5765 5767 5769 5770 5772 5774 5776 5778 5781 5783 5786 5788 5789 5790 5791 5794 5795 5796 5798 5801 5805 5809 5811 5812 5813 5815 5818 5820 5821 5822 5822 5822 5823 5823 5824 5825 5826 5826
5577 5583 5589 5592 5596 5599 5602 5606 5609 5611 5613 5615 5615 5621 5633 5644 5649 5651 5655 5660 5665 5668 5668 5670 5675 5678 5682 5686 5690 5694 5698 5701 5704 5706 5711 5715 5718 5723 5728 5732 5736 5739 5743 5746 5748 5751 5754 5756 5758 5760 5761 5763 5765 5766 5767 5769 5772 5774 5777 5781 5783 5783 5784 5786 5787 5789 5790 5791 5794 5798 5801 5805 5807 5808 5811 5811 5813 5815 5816 5817 5817 5817 5817 5818 5819 5820 5821 5821
5574 5579 5583 5587 5592 5594 5597 5601 5603 5605 5608 5609 5613 5623 5633 5638 5640 5644 5650 5655 5659 5661 5662 5665 5670 5674 5679 5683 5687 5691 5693 5696 5699 5702 5707 5709 5713 5719 5725 5728 5732 5735 5738 5741 5743 5746 5749 5750 5752 5754 5756 5758 5760 5760 5762 5765 5767 5770 5773 5776 5777 5777 5779 5782 5783 5784 5786 5788 5791 5794 5797 5800 5803 5805 5807 5807 5808 5809 5811 5812 5812 5812 5813 5813 5814 5815 5816 5816
5569 5573 5577 5582 5586 5588 5591 5595 5598 5600 5601 5604 5611 5621 5627 5631 5635 5641 5646 5649 5652 5654 5656 5661 5666 5670 5674 5679 5683 5686 5689 5692 5696 5699 5702 5705 5710 5716 5721 5724 5728 5731 5733 5736 5738 5740 5743 5745 5746 5748 5751 5752 5753 5754 5757 5761 5763 5765 5767 5770 5771 5773 5775 5778 5778 5781 5783 5784 5787 5789 5792 5796 5799 5801 5803 5803 5804 5805 5806 5807 5807 5807 5808 5809 5809 5810 5811 5811
5564 5568 5572 5577 5580 5582 5585 5588 5591 5592 5595 5602 5611 5617 5622 5626 5630 5635 5640 5642 5645 5648 5651 5656 5661 5665 5669 5674 5677 5680 5684 5688 5692 5696 5699 5703 5708 5712 5716 5720 5723 5726 5729 5730 5732 5735 5737 5739 5741 5743 5745 5746 5748 5751 5755 5758 5759 5761 5763 5765 5768 5770 5771 5773 5775 5777 5779 5780 5782 5784 5786 5791 5796 5797 5798 5799 5800 5800 5801 5802 5802 5802 5804 5805 5805 5806 5806 5807
5558 5562 5566 5570 5572 5574 5577 5580 5583 5587 5593 5601 5607 5612 5616 5621 5625 5630 5633 5636 5639 5643 5647 5652 5656 5660 5664 5668 5671 5675 5679 5682 5686 5690 5693 5699 5704 5708 5713 5716 5719 5721 5722 5723 5726 5730 5732 5734 5736 5737 5739 5742 5746 5749 5751 5752 5754 5756 5758 5761 5763 5765 5767 5768 5769 5772 5774 5775 5777 5778 5781 5787 5791 5792 5793 5795 5795 5796 5796 5796 5797 5798 5799 5800 5801 5802 5802 5802
5552 5556 5560 5564 5566 5569 5572 5575 5579 5585 5591 5596 5601 5606 5611 5615 5619 5623 5627 5630 5634 5638 5642 5646 5649 5654 5658 5662 5666 5669 5672 5676 5680 5684 5688 5695 5700 5704 5708 5711 5713 5715 5716 5718 5722 5725 5727 5729 5730 5731 5735 5738 5740 5742 5744 5746 5749 5751 5753 5756 5758 5759 5762 5763 5764 5768 5770 5770 5772 5774 5776 5782 5787 5788 5789 5790 5791 5791 5791 5792 5792 5793 5794 5795 5796 5797 5797 5797
5547 5551 5555 5558 5561 5564 5567 5570 5575 5581 5587 5592 5597 5602 5606 5610 5613 5617 5621 5625 5629 5633 5636 5640 5644 5648 5651 5656 5660 5663 5667 5671 5674 5679 5685 5690 5694 5698 5699 5702 5706 5708 5709 5712 5715 5718 5720 5721 5723 5726 5728 5730 5732 5736 5738 5740 5743 5745 5749 5753 5754 5755 5758 5759 5760 5762 5763 5765 5768 5769 5771 5779 5784 5785 5786 5785 5785 5786 5786 5787 5787 5787 5788 5789 5790 5791 5792 5792
5544 5546 5550 5553 5556 5558 5561 5566 5572 5578 5583 5588 5592 5595 5600 5604 5608 5612 5616 5619 5623 5627 5631 5635 5639 5643 5646 5651 5654 5658 5661 5664 5668 5674 5679 5682 5687 5690 5692 5695 5699 5701 5703 5707 5710 5713 5714 5714 5716 5718 5719 5721 5724 5727 5731 5734 5739 5743 5747 5749 5750 5751 5752 5752 5754 5756 5757 5761 5764 5764 5768 5777 5780 5781 5781 5779 5779 5781 5781 5781 5782 5782 5783 5783 5783 5784 5785 5785
5540 5542 5545 5548 5551 5553 5558 5564 5570 5575 5579 5583 5587 5590 5594 5598 5602 5607 5611 5614 5618 5622 5626 5630 5634 5638 5642 5645 5648 5651 5654 5658 5663 5668 5672 5676 5680 5683 5685 5688 5691 5695 5698 5701 5703 5705 5705 5705 5708 5710 5711 5714 5718 5723 5729 5735 5738 5740 5742 5744 5745 5746 5746 5748 5750 5749 5752 5758 5759 5760 5767 5774 5775 5775 5776 5773 5772 5774 5775 5776 5777 5776 5776 5776 5775 5776 5777 5778
5535 5537 5540 5544 5547 5550 5555 5561 5565 5569 5575 5579 5583 5586 5590 5594 5598 5602 5605 5608 5612 5616 5620 5623 5628 5632 5635 5638 5642 5645 5649 5653 5657 5661 5666 5670 5673 5676 5679 5681 5684 5688 5690 5693 5695 5696 5695 5697 5701 5704 5706 5711 5718 5723 5728 5731 5732 5734 5736 5739 5740 5740 5742 5743 5741 5743 5750 5754 5752 5756 5765 5768 5768 5768 5768 5767 5767 5768 5769 5771 5770 5769 5769 5769 5769 5769 5770 5770
5529 5532 5535 5540 5543 5546 5551 5556 5559 5564 5569 5574 5577 5582 5586 5589 5593 5596 5600 5603 5606 5610 5614 5617 5621 5625 5628 5633 5637 5640 5645 5648 5651 5655 5660 5663 5667 5670 5672 5675 5677 5680 5683 5686 5687 5688 5688 5690 5695 5699 5703 5709 5715 5716 5718 5721 5723 5726 5729 5730 5731 5732 5733 5733 5733 5740 5746 5744 5744 5754 5760 5760 5761 5762 5762 5763 5763 5762 5762 5763 5763 5763 5763 5763 5763 5764 5764 5763
5525 5528 5532 5535 5539 5543 5548 5552 5555 5559 5564 5567 5571 5575 5579 5583 5587 5591 5595 5598 5601 5605 5608 5611 5616 5620 5624 5629 5632 5635 5639 5641 5644 5649 5653 5657 5660 5663 5666 5669 5670 5673 5676 5678 5679 5681 5682 5686 5692 5696 5699 5705 5708 5707 5710 5714 5716 5719 5720 5722 5724 5724 5725 5726 5730 5737 5739 5735 5741 5752 5753 5752 5756 5757 5758 5759 5757 5755 5756 5755 5757 5758 5757 5757 5758 5758 5757 5756
5521 5524 5527 5531 5535 5540 5544 5548 5551 5555 5559 5562 5565 5569 5573 5577 5582 5585 5588 5592 5595 5599 5602 5607 5612 5617 5620 5623 5626 5629 5632 5635 5639 5644 5648 5652 5654 5657 5660 5662 5664 5667 5669 5671 5673 5675 5677 5682 5688 5690 5693 5699 5699 5699 5704 5707 5707 5710 5713 5715 5717 5717 5719 5722 5726 5732 5732 5731 5739 5746 5742 5745 5752 5752 5754 5755 5752 5751 5751 5749 5750 5751 5751 5752 5753 5751 5749 5747
5517 5521 5523 5526 5531 5535 5539 5542 5546 5550 5554 5557 5560 5565 5569 5573 5577 5580 5583 5586 5590 5594 5598 5603 5608 5611 5614 5616 5619 5622 5626 5630 5635 5639 5642 5645 5647 5651 5654 5655 5659 5662 5663 5664 5667 5668 5671 5677 5681 5684 5686 5689 5692 5694 5697 5698 5699 5702 5704 5706 5709 5711 5714 5718 5723 5728 5727 5726 5734 5736 5733 5740 5748 5748 5750 5751 5747 5746 5746 5744 5744 5743 5743 5744 5744 5743 5742 5740
5513 5517 5520 5522 5526 5530 5533 5537 5541 5544 5548 5551 5556 5561 5564 5569 5573 5575 5578 5582 5585 5589 5594 5598 5601 5603 5606 5609 5612 5616 5620 5624 5628 5631 5635 5637 5640 5644 5646 5648 5653 5655 5656 5659 5660 5662 5667 5671 5675 5677 5677 5681 5687 5688 5688 5691 5691 5690 5692 5698 5704 5707 5712 5716 5719 5721 5720 5720 5726 5726 5726 5737 5744 5742 5743 5744 5739 5739 5740 5739 5737 5736 5735 5736 5736 5736 5735 5733
5508 5512 5515 5518 5521 5525 5528 5532 5535 5538 5543 5548 5553 5556 5559 5564 5567 5569 5572 5577 5580 5584 5588 5591 5593 5595 5599 5603 5606 5609 5613 5617 5621 5624 5627 5630 5633 5636 5638 5641 5645 5647 5650 5652 5654 5657 5661 5664 5668 5670 5670 5675 5681 5680 5681 5683 5678 5676 5686 5698 5704 5706 5708 5709 5710 5712 5714 5715 5716 5716 5723 5734 5735 5731 5733 5735 5732 5731 5733 5732 5730 5729 5729 5730 5730 5730 5728 5726